Location: Presov
(49.0000°N, 21.2500°E)
Time: 10:11:06
(UTC+02:00)

A-11 Canister half - Pass Details

Date: 25 April 2021
Orbit: 1526 x 1683 km, 47.3° (Epoch: 11 May)

Event Time Altitude Azimuth Distance (km) Brightness Sun altitude
Rises 21:49:34 0° 290° (WNW) 4,939 12.8 -17.9°
Reaches altitude 10° 21:53:36 10° 277° (W) 3,948 11.8 -18.3°
Maximum altitude 22:00:52 23° 230° (SW) 3,018 10.5 -19.1°
Enters shadow 22:07:20 12° 187° (S) 3,741 10.6 -19.7°
